| time (UTC) | temp F | wind direction | speed MPH | gust MPH | rain 1hr in | rain 24hr in | rain mn in | humidity % | barometer mb |
| 20260504050104 | 51 | 168 | 0.0 | 0.0 | 0.00 | 0.00 | 0.00 | 78 | 1013.9 |
| 20260504044604 | 50 | 168 | 0.0 | 0.0 | 0.00 | 0.00 | 0.00 | 79 | 1013.9 |
| 20260504043057 | 49 | 168 | 0.0 | 0.0 | 0.00 | 0.00 | 0.00 | 80 | 1013.7 |
| 20260504041554 | 49 | 168 | 0.0 | 0.0 | 0.00 | 0.00 | 0.00 | 81 | 1013.7 |
| 20260504040053 | 48 | 167 | 0.0 | 0.0 | 0.00 | 0.00 | 0.00 | 81 | 1013.6 |
| 20260504034554 | 48 | 167 | 0.0 | 0.0 | 0.00 | 0.00 | 0.00 | 81 | 1013.6 |
| 20260504033055 | 48 | 167 | 0.0 | 0.0 | 0.00 | 0.00 | 0.00 | 80 | 1013.7 |
| 20260504031550 | 48 | 167 | 0.0 | 0.0 | 0.00 | 0.00 | 0.00 | 80 | 1013.7 |
| 20260504030048 | 48 | 167 | 0.0 | 0.0 | 0.00 | 0.00 | 0.00 | 79 | 1013.6 |
| 20260504024547 | 49 | 168 | 0.0 | 0.0 | 0.00 | 0.00 | 0.00 | 78 | 1013.6 |
| 20260504023043 | 49 | 168 | 0.0 | 0.0 | 0.00 | 0.00 | 0.00 | 77 | 1013.6 |
| 20260504021543 | 50 | 168 | 0.0 | 0.0 | 0.00 | 0.00 | 0.00 | 76 | 1013.5 |
| 20260504020041 | 50 | 168 | 0.0 | 0.0 | 0.00 | 0.00 | 0.00 | 75 | 1013.5 |
| 20260504014539 | 51 | 168 | 0.0 | 0.0 | 0.00 | 0.00 | 0.00 | 73 | 1013.5 |
| 20260504013038 | 52 | 168 | 0.0 | 0.0 | 0.00 | 0.00 | 0.00 | 72 | 1013.5 |
| 20260504011533 | 52 | 167 | 0.0 | 0.0 | 0.00 | 0.00 | 0.00 | 72 | 1013.4 |
| 20260504010043 | 52 | 168 | 0.0 | 0.0 | 0.00 | 0.00 | 0.00 | 71 | 1013.3 |
| 20260504004531 | 52 | 153 | 0.0 | 0.0 | 0.00 | 0.00 | 0.00 | 72 | 1013.3 |
| 20260504003030 | 52 | 152 | 0.0 | 0.0 | 0.00 | 0.00 | 0.00 | 71 | 1013.2 |
| 20260504001530 | 52 | 152 | 0.0 | 0.0 | 0.00 | 0.00 | 0.00 | 72 | 1013.1 |
| 20260504000028 | 52 | 152 | 0.0 | 0.0 | 0.00 | 0.00 | 0.00 | 71 | 1013.1 |
| 20260503234527 | 52 | 152 | 0.0 | 0.0 | 0.00 | 0.00 | 0.00 | 71 | 1013.1 |
| 20260503233025 | 53 | 152 | 0.0 | 0.0 | 0.00 | 0.00 | 0.00 | 70 | 1013.2 |
| 20260503231522 | 53 | 152 | 0.0 | 0.0 | 0.00 | 0.00 | 0.00 | 69 | 1013.1 |
| 20260503230023 | 54 | 152 | 0.0 | 0.0 | 0.00 | 0.00 | 0.00 | 68 | 1013.1 |
| 20260503224516 | 55 | 152 | 0.0 | 0.0 | 0.00 | 0.00 | 0.00 | 68 | 1013.2 |
| 20260503223014 | 55 | 152 | 0.0 | 0.0 | 0.00 | 0.00 | 0.00 | 66 | 1013.2 |
| 20260503221513 | 56 | 152 | 0.0 | 0.0 | 0.00 | 0.00 | 0.00 | 63 | 1013.3 |
| 20260503220008 | 57 | 152 | 0.0 | 0.0 | 0.00 | 0.00 | 0.00 | 60 | 1013.2 |
| 20260503214506 | 58 | 152 | 0.0 | 0.0 | 0.00 | 0.00 | 0.00 | 58 | 1013.3 |
| 20260503213015 | 58 | 152 | 0.0 | 0.0 | 0.00 | 0.00 | 0.00 | 57 | 1013.3 |
| 20260503211514 | 59 | 152 | 0.0 | 0.0 | 0.00 | 0.00 | 0.00 | 56 | 1013.4 |
| 20260503210006 | 60 | 152 | 0.0 | 0.0 | 0.00 | 0.00 | 0.00 | 54 | 1013.5 |
| 20260503204505 | 61 | 152 | 0.0 | 1.0 | 0.00 | 0.00 | 0.00 | 53 | 1013.5 |
| 20260503203005 | 62 | 150 | 0.0 | 0.0 | 0.00 | 0.00 | 0.00 | 51 | 1013.5 |
| 20260503201509 | 63 | 141 | 0.0 | 1.0 | 0.00 | 0.00 | 0.00 | 50 | 1013.6 |
| 20260503200004 | 64 | 136 | 0.0 | 1.0 | 0.00 | 0.00 | 0.00 | 49 | 1013.6 |
| 20260503194504 | 65 | 142 | 0.0 | 1.0 | 0.00 | 0.00 | 0.00 | 47 | 1013.6 |
| 20260503193003 | 66 | 138 | 0.0 | 0.0 | 0.00 | 0.00 | 0.00 | 46 | 1013.6 |
| 20260503191503 | 66 | 99 | 0.0 | 1.0 | 0.00 | 0.00 | 0.00 | 46 | 1013.6 |
| 20260503190002 | 67 | 105 | 0.0 | 1.0 | 0.00 | 0.00 | 0.00 | 45 | 1013.6 |
| 20260503184502 | 67 | 86 | 0.0 | 0.0 | 0.00 | 0.00 | 0.00 | 45 | 1013.5 |
| 20260503183000 | 68 | 84 | 0.0 | 0.0 | 0.00 | 0.00 | 0.00 | 44 | 1013.2 |
| 20260503181504 | 70 | 84 | 0.0 | 0.0 | 0.00 | 0.00 | 0.00 | 42 | 1013.1 |
| 20260503180135 | 72 | 84 | 0.0 | 3.0 | 0.00 | 0.00 | 0.00 | 40 | 1013.0 |
| 20260503174601 | 73 | 98 | 0.0 | 2.0 | 0.00 | 0.00 | 0.00 | 38 | 1013.0 |
| 20260503173103 | 74 | 38 | 0.0 | 6.0 | 0.00 | 0.00 | 0.00 | 37 | 1012.9 |
| 20260503171559 | 75 | 129 | 0.0 | 9.0 | 0.00 | 0.00 | 0.00 | 37 | 1012.9 |
| 20260503170104 | 75 | 153 | 0.0 | 6.0 | 0.00 | 0.00 | 0.00 | 36 | 1012.9 |
| 20260503081543 | 67 | 130 | 1.0 | 5.0 | 0.00 | 0.00 | 0.00 | 47 | 1018.2 |
| 20260503071531 | 64 | 57 | 0.0 | 3.0 | 0.00 | 0.00 | 0.00 | 52 | 1018.4 |